solcelle ydelse fra 2 paneler

Ydelsen fra to solpaneler er ret forskellig. Det er panelernes forudsætninger også.

amp 1 er ydelsen fra mit første 30 watts solpanel,

amp2 er ydelsen i ampere fra solpanelet på 120 watt som ligger fladt på taget,

amp3 er 60 watts panelet der er næsten vinkelret på solindfaldet.

Voltbat er spændingen på batteriet.

Solpanelet på 120 watt der liggger fladt på taget, amp2, yder faktisk det halve af hvad det kunne have gjort.

Det får mig til at tænke på at lave en simpel/billig solartracker til alle panelerne i næste serie af solpaneler med EVA laminering.

Det er vist her der er mest effektivisering at hente.

En anden ting jeg har erfaret med det panel der ligger fladt på taget er at det faktisk yder 0,8-1,2 ampere når der er hvide skyer på himlen, uden at solen skinner på panelet. Altså deffus solindfald. Det vil der jo være en stor del af året her i dk. Det skal næsten udnyttes, hvilket betyder at soltrackeren skal kunne finde den retning på himlen hvor der er mest lys. Det betyder jo så at solpanelerne skal kunne vippe så de peger direkte op i skyerne.

hvad yder solceller i gråvejr solceller om vinteren

2009-8-26 11:58:32;voltbat 14,50
2009-8-26 11:58:35;amp1 0,882
2009-8-26 11:58:38;amp2 2,379
2009-8-26 11:58:41;amp3 2,433

2009-8-26 12:00:58;voltbat 14,52
2009-8-26 12:01:01;amp1 0,855
2009-8-26 12:01:04;amp2 2,593
2009-8-26 12:01:07;amp3 2,620

2009-8-26 12:03:24;voltbat 14,50
2009-8-26 12:03:27;amp1 0,802
2009-8-26 12:03:31;amp2 2,192
2009-8-26 12:03:34;amp3 2,112

2009-8-26 12:05:51;voltbat 14,52
2009-8-26 12:05:54;amp1 0,935
2009-8-26 12:05:57;amp2 2,593
2009-8-26 12:06:00;amp3 2,673

2009-8-26 12:08:18;voltbat 14,56
2009-8-26 12:08:21;amp1 0,909
2009-8-26 12:08:24;amp2 2,647
2009-8-26 12:08:27;amp3 2,700

2009-8-26 12:10:44;voltbat 14,52
2009-8-26 12:10:47;amp1 0,828
2009-8-26 12:10:50;amp2 2,459
2009-8-26 12:10:53;amp3 2,513

2009-8-26 12:13:10;voltbat 14,44
2009-8-26 12:13:13;amp1 0,721
2009-8-26 12:13:16;amp2 2,272
2009-8-26 12:13:19;amp3 2,192

2009-8-26 12:15:36;voltbat 14,44
2009-8-26 12:15:39;amp1 0,721
2009-8-26 12:15:43;amp2 2,165
2009-8-26 12:15:46;amp3 1,898

2009-8-26 12:18:03;voltbat 14,54
2009-8-26 12:18:06;amp1 0,962
2009-8-26 12:18:09;amp2 2,566
2009-8-26 12:18:12;amp3 2,620

Skriv et svar

Din e-mailadresse vil ikke blive offentliggjort. Krævede felter er markeret med *